This is the latest recevied weather packets stored in our database for station/object N7MLR. If no packets are shown the sender has not sent any weather packets the latest 10 day(s).
| Time | Temp. | Humidity | Pressure | Rain* | Wind** | Luminosity | Snow |
|---|---|---|---|---|---|---|---|
| 1777770105 | 19.44° C | 55% | 1019.9 hPa | 0 mm | - | 6 W/m² | - |
| 1777769802 | 19.44° C | 53% | 1019.4 hPa | 0 mm | - | 9 W/m² | - |
| 1777769499 | 20° C | 50% | 1019.5 hPa | 0 mm | - | 11 W/m² | - |
| 1777769196 | 20.56° C | 48% | 1019.8 hPa | 0 mm | - | 14 W/m² | - |
| 1777768894 | 20.56° C | 46% | 1019.5 hPa | 0 mm | - | 16 W/m² | - |
| 1777768591 | 20.56° C | 47% | 1019.5 hPa | 0 mm | - | 18 W/m² | - |
| 1777768288 | 21.11° C | 44% | 1019.5 hPa | 0 mm | - | 22 W/m² | - |
| 1777767985 | 21.11° C | 46% | 1019.5 hPa | 0 mm | - | 22 W/m² | - |
| 1777767682 | 21.11° C | 44% | 1019.6 hPa | 0 mm | - | 24 W/m² | - |
| 1777767378 | 21.11° C | 44% | 1019.5 hPa | 0 mm | - | 24 W/m² | - |
| 1777767075 | 21.67° C | 44% | 1019.6 hPa | 0 mm | - | 28 W/m² | - |
| 1777766773 | 21.67° C | 43% | 1019.8 hPa | 0 mm | - | 29 W/m² | - |
| 1777766469 | 21.67° C | 42% | 1019.6 hPa | 0 mm | - | 30 W/m² | - |
| 1777766166 | 21.67° C | 42% | 1019.9 hPa | 0 mm | - | 31 W/m² | - |
| 1777765864 | 21.67° C | 43% | 1019.6 hPa | 0 mm | - | 33 W/m² | - |
| 1777765559 | 21.67° C | 42% | 1019.4 hPa | 0 mm | - | 35 W/m² | - |
| 1777765258 | 22.22° C | 44% | 1019.6 hPa | 0 mm | - | 35 W/m² | - |
| 1777764958 | 22.22° C | 43% | 1019.6 hPa | 0 mm | - | 37 W/m² | - |
| 1777764655 | 22.22° C | 43% | 1019.5 hPa | 0 mm | - | 38 W/m² | - |
| 1777764351 | 21.67° C | 42% | 1019.5 hPa | 0 mm | - | 39 W/m² | - |
| 1777764049 | 22.22° C | 42% | 1019.4 hPa | 0 mm | - | 39 W/m² | - |
| 1777763745 | 22.78° C | 44% | 1019.4 hPa | 0 mm | - | 40 W/m² | - |
| 1777763443 | 22.78° C | 44% | 1019.6 hPa | 0 mm | - | 42 W/m² | - |
| 1777763141 | 22.22° C | 41% | 1019.5 hPa | 0 mm | - | 44 W/m² | - |
| 1777762839 | 22.78° C | 44% | 1019.6 hPa | 0 mm | - | 45 W/m² | - |
* Rain latest hour (hover to see other rain measurements)
** Current wind speed in m/s (hover to see current wind gust speed)